EW6072 Weather Reports


time (UTC)temp
F
wind
direction
speed
knots
gust
knots
rain 1hr
in
rain 24hr
in
rain mn
in
humidity
%
barometer
mb
20190319230105 43 132 3.5 7.8 0.00 0.00 0.00 35 1027.9
20190319224536 43 153 2.6 7.8 0.00 0.00 0.00 34 1027.7
20190319223029 44 92 3.5 7.0 0.00 0.00 0.00 36 1027.8
20190319221545 44 127 3.5 8.7 0.00 0.00 0.00 35 1027.6
20190319220055 44 229 2.6 4.3 0.00 0.00 0.00 34 1027.5
20190319214527 45 206 1.7 6.1 0.00 0.00 0.00 33 1027.7
20190319213035 46 99 4.3 7.0 0.00 0.00 0.00 33 1027.8
20190319211530 47 113 3.5 7.8 0.00 0.00 0.00 34 1027.8
20190319210017 48 121 2.6 9.6 0.00 0.00 0.00 32 1027.8
20190319204511 48 163 3.5 9.6 0.00 0.00 0.00 32 1028.0
20190319203015 48 133 1.7 8.7 0.00 0.00 0.00 31 1028.1
20190319200033 50 149 4.3 7.0 0.00 0.00 0.00 33 1028.2
20190319194503 47 117 3.5 8.7 0.00 0.00 0.00 30 1028.3
20190319193006 48 123 3.5 8.7 0.00 0.00 0.00 34 1028.3
20190319191659 45 221 1.7 5.2 0.00 0.00 0.00 31 1028.5
20190319190153 47 211 2.6 6.1 0.00 0.00 0.00 32 1028.9
20190319184641 46 120 2.6 7.8 0.00 0.00 0.00 32 1029.1
20190319183113 47 130 4.3 7.0 0.00 0.00 0.00 33 1029.4
20190319181702 46 103 1.7 7.8 0.00 0.00 0.00 37 1029.6
20190319180124 47 161 3.5 7.0 0.00 0.00 0.00 36 1030.0
20190319174700 44 164 2.6 7.0 0.00 0.00 0.00 36 1030.4
20190319173116 42 285 1.7 7.0 0.00 0.00 0.00 36 1030.8
20190319171610 43 88 4.3 7.8 0.00 0.00 0.00 40 1031.1
20190319170110 43 181 1.7 9.6 0.00 0.00 0.00 36 1031.1
20190319164710 40 221 0.9 7.0 0.00 0.00 0.00 41 1031.3
20190319163139 40 126 3.5 7.0 0.00 0.00 0.00 40 1031.3
20190319161554 40 144 3.5 7.0 0.00 0.00 0.00 45 1031.3
20190319160124 37 219 2.6 6.1 0.00 0.00 0.00 41 1031.7
20190319154618 37 133 1.7 6.1 0.00 0.00 0.00 40 1031.8
20190319153116 36 110 1.7 6.1 0.00 0.00 0.00 43 1031.8
20190319151545 36 86 2.6 7.8 0.00 0.00 0.00 44 1031.8
20190319150037 35 121 2.6 7.0 0.00 0.00 0.00 45 1031.9
20190319144550 35 107 2.6 6.1 0.00 0.00 0.00 48 1031.7
20190319143022 34 107 1.7 7.0 0.00 0.00 0.00 49 1031.6
20190319141508 33 146 2.6 7.8 0.00 0.00 0.00 51 1031.9
20190319140235 33 130 3.5 7.8 0.00 0.00 0.00 55 1031.9
20190319134644 31 153 2.6 7.0 0.00 0.00 0.00 58 1031.7
20190319133151 30 134 2.6 4.3 0.00 0.00 0.00 63 1031.7
20190319131707 28 142 1.7 3.5 0.00 0.00 0.00 67 1031.6
20190319130138 27 189 0.9 2.6 0.00 0.00 0.00 75 1031.3
20190319124644 25 286 0.9 2.6 0.00 0.00 0.00 79 1031.1
20190319123108 23 286 0.0 0.9 0.00 0.00 0.00 78 1030.8
20190319121617 23 286 0.0 0.9 0.00 0.00 0.00 77 1030.5
20190319120052 23 286 0.0 1.7 0.00 0.00 0.00 76 1030.4
20190319114602 23 287 0.0 1.7 0.00 0.00 0.00 75 1030.2
20190319113037 23 287 0.0 0.9 0.00 0.00 0.00 75 1030.0
20190319111544 24 287 0.0 1.7 0.00 0.00 0.00 73 1029.7
20190319110100 24 287 0.0 0.9 0.00 0.00 0.00 72 1029.4
20190319104527 25 287 0.0 0.0 0.00 0.00 0.00 71 1029.3
20190319103113 25 287 0.0 0.9 0.00 0.00 0.00 70 1029.3
20190319101521 25 287 0.0 0.0 0.00 0.00 0.00 69 1029.0
20190319100055 26 287 0.0 0.0 0.00 0.00 0.00 67 1028.8
20190319094511 26 287 0.0 0.0 0.00 0.00 0.00 67 1028.5
20190319093014 26 288 0.0 0.0 0.00 0.00 0.00 66 1028.3
20190319091522 27 287 0.0 2.6 0.00 0.00 0.00 64 1028.3
20190319090005 27 287 0.9 2.6 0.00 0.00 0.00 65 1028.2
20190319084527 27 309 1.7 3.5 0.00 0.00 0.00 64 1028.4
20190319083003 27 293 0.0 1.7 0.00 0.00 0.00 63 1028.5
20190319081819 27 293 0.9 2.6 0.00 0.00 0.00 63 1028.5
20190319080242 28 302 0.9 3.5 0.00 0.00 0.00 62 1028.5
20190319074700 28 280 0.9 4.3 0.00 0.00 0.00 62 1028.6
20190319073145 28 293 1.7 2.6 0.00 0.00 0.00 61 1028.5
20190319071717 28 285 1.7 3.5 0.00 0.00 0.00 61 1028.6
20190319070159 28 287 0.9 2.6 0.00 0.00 0.00 62 1028.4
20190319064735 28 301 0.9 3.5 0.00 0.00 0.00 60 1028.5
20190319063158 28 273 0.9 2.6 0.00 0.00 0.00 60 1028.7
20190319061644 29 272 0.9 2.6 0.00 0.00 0.00 59 1028.9
20190319060100 29 269 0.9 3.5 0.00 0.00 0.00 58 1029.1
20190319054656 29 267 0.9 2.6 0.00 0.00 0.00 57 1028.8
20190319053114 29 281 0.9 3.5 0.00 0.00 0.00 56 1028.6
20190319051630 29 284 0.9 3.5 0.00 0.00 0.00 57 1028.7
20190319050110 29 313 1.7 3.5 0.00 0.00 0.00 56 1028.6
20190319044715 30 289 0.0 4.3 0.00 0.00 0.00 56 1028.4
20190319043056 30 260 2.6 7.0 0.00 0.00 0.00 55 1028.3
20190319041616 30 282 0.9 4.3 0.00 0.00 0.00 54 1028.6
20190319040101 30 281 1.7 3.5 0.00 0.00 0.00 54 1028.6
20190319034613 31 288 1.7 3.5 0.00 0.00 0.00 54 1028.6
20190319033058 31 293 0.9 2.6 0.00 0.00 0.00 55 1028.6
20190319031557 31 301 0.9 3.5 0.00 0.00 0.00 52 1028.6
20190319030047 31 265 1.7 4.3 0.00 0.00 0.00 53 1028.3
20190319024538 31 251 0.9 2.6 0.00 0.00 0.00 53 1028.3
20190319023104 31 267 0.9 2.6 0.00 0.00 0.00 51 1028.3
20190319021558 32 257 0.9 3.5 0.00 0.00 0.00 51 1028.3
20190319020107 32 275 0.9 5.2 0.00 0.00 0.00 50 1028.1
20190319014533 32 260 1.7 3.5 0.00 0.00 0.00 49 1028.1
20190319013035 32 265 3.5 7.0 0.00 0.00 0.00 49 1028.1
20190319011519 33 270 0.9 4.3 0.00 0.00 0.00 47 1027.8
20190319010045 33 240 0.0 2.6 0.00 0.00 0.00 47 1027.8
20190319004521 33 263 0.9 3.5 0.00 0.00 0.00 47 1027.5
20190319003031 34 232 2.6 7.8 0.00 0.00 0.00 45 1027.4
20190319001516 34 240 0.9 5.2 0.00 0.00 0.00 45 1027.1
20190319000017 35 261 0.9 5.2 0.00 0.00 0.00 42 1027.0
20190318234519 35 292 1.7 4.3 0.00 0.00 0.00 40 1026.8
20190318233009 36 244 0.9 7.0 0.00 0.00 0.00 41 1026.5
20190318231505 36 294 1.7 4.3 0.00 0.00 0.00 40 1026.1